Time,TemperatureF,DewpointF,PressureIn,WindDirection,WindDirectionDegrees,WindSpeedMPH,WindSpeedGustMPH,Humidity,HourlyPrecipIn,Conditions,Clouds,dailyrainin,SoftwareType,DateUTC
2013-06-13 00:00:00,53.0,53.0,29.57,North,-999,-999.0,-999.0,100,-99.99,,,-99.99,,2013-06-12 23:00:00,
2013-06-13 00:42:00,53.0,53.0,29.57,North,-999,-999.0,-999.0,100,-99.99,,,-99.99,,2013-06-12 23:42:00,
2013-06-13 00:52:00,53.0,53.0,29.57,North,-999,-999.0,-999.0,100,-99.99,,,-99.99,,2013-06-12 23:52:00,
2013-06-13 01:00:00,53.0,53.0,29.57,North,-999,-999.0,-999.0,99,-99.99,,,-99.99,,2013-06-13 00:00:00,
2013-06-13 01:42:00,53.0,53.0,29.57,North,-999,-999.0,-999.0,99,-99.99,,,-99.99,,2013-06-13 00:42:00,
2013-06-13 01:52:00,53.0,53.0,29.57,North,-999,-999.0,-999.0,99,-99.99,,,-99.99,,2013-06-13 00:52:00,
2013-06-13 02:00:00,54.0,54.0,29.57,North,-999,-999.0,-999.0,100,-99.99,,,-99.99,,2013-06-13 01:00:00,
2013-06-13 02:42:00,54.0,54.0,29.57,North,-999,-999.0,-999.0,100,-99.99,,,-99.99,,2013-06-13 01:42:00,
2013-06-13 02:52:00,54.0,54.0,29.57,North,-999,-999.0,-999.0,100,-99.99,,,-99.99,,2013-06-13 01:52:00,
2013-06-13 03:00:00,54.0,54.0,29.55,North,-999,-999.0,-999.0,100,-99.99,,,-99.99,,2013-06-13 02:00:00,
2013-06-13 03:42:00,54.0,54.0,29.55,North,-999,-999.0,-999.0,100,-99.99,,,-99.99,,2013-06-13 02:42:00,
2013-06-13 03:52:00,54.0,54.0,29.55,North,-999,-999.0,-999.0,100,-99.99,,,-99.99,,2013-06-13 02:52:00,
2013-06-13 04:00:00,51.0,51.0,29.56,North,-999,-999.0,-999.0,100,-99.99,,,-99.99,,2013-06-13 03:00:00,
2013-06-13 04:42:00,51.0,51.0,29.56,North,-999,-999.0,-999.0,100,-99.99,,,-99.99,,2013-06-13 03:42:00,
2013-06-13 04:52:00,51.0,51.0,29.56,North,-999,-999.0,-999.0,100,-99.99,,,-99.99,,2013-06-13 03:52:00,
2013-06-13 06:00:00,53.0,53.0,29.60,North,-999,-999.0,-999.0,100,-99.99,,,-99.99,,2013-06-13 05:00:00,
2013-06-13 06:42:00,53.0,53.0,29.60,North,-999,-999.0,-999.0,100,-99.99,,,-99.99,,2013-06-13 05:42:00,
2013-06-13 06:52:00,53.0,53.0,29.60,North,-999,-999.0,-999.0,100,-99.99,,,-99.99,,2013-06-13 05:52:00,
2013-06-13 07:00:00,53.0,53.0,29.62,North,-999,-999.0,-999.0,100,-99.99,,,-99.99,,2013-06-13 06:00:00,
2013-06-13 07:44:00,53.0,53.0,29.62,North,-999,-999.0,-999.0,100,-99.99,,,-99.99,,2013-06-13 06:44:00,
2013-06-13 07:52:00,53.0,53.0,29.62,North,-999,-999.0,-999.0,100,-99.99,,,-99.99,,2013-06-13 06:52:00,
2013-06-13 08:00:00,51.0,51.0,29.64,North,-999,-999.0,-999.0,100,-99.99,,,-99.99,,2013-06-13 07:00:00,
2013-06-13 08:42:00,51.0,51.0,29.64,North,-999,-999.0,-999.0,100,-99.99,,,-99.99,,2013-06-13 07:42:00,
2013-06-13 08:52:00,51.0,51.0,29.64,North,-999,-999.0,-999.0,100,-99.99,,,-99.99,,2013-06-13 07:52:00,
2013-06-13 09:00:00,51.0,51.0,29.66,North,-999,-999.0,-999.0,100,-99.99,,,-99.99,,2013-06-13 08:00:00,
2013-06-13 09:42:00,51.0,51.0,29.66,North,-999,-999.0,-999.0,100,-99.99,,,-99.99,,2013-06-13 08:42:00,
2013-06-13 09:52:00,51.0,51.0,29.66,North,-999,-999.0,-999.0,100,-99.99,,,-99.99,,2013-06-13 08:52:00,
2013-06-13 10:00:00,53.0,51.0,29.70,North,-999,-999.0,-999.0,94,-99.99,,,-99.99,,2013-06-13 09:00:00,
2013-06-13 10:42:00,53.0,51.0,29.70,North,-999,-999.0,-999.0,94,-99.99,,,-99.99,,2013-06-13 09:42:00,
2013-06-13 10:52:00,53.0,51.0,29.70,North,-999,-999.0,-999.0,94,-99.99,,,-99.99,,2013-06-13 09:52:00,
2013-06-13 11:00:00,53.0,53.0,29.73,North,-999,-999.0,-999.0,96,-99.99,,,-99.99,,2013-06-13 10:00:00,
2013-06-13 11:42:00,53.0,53.0,29.73,North,-999,-999.0,-999.0,96,-99.99,,,-99.99,,2013-06-13 10:42:00,
2013-06-13 11:53:00,53.0,53.0,29.73,North,-999,-999.0,-999.0,96,-99.99,,,-99.99,,2013-06-13 10:53:00,
2013-06-13 12:00:00,58.0,50.0,29.78,North,-999,-999.0,-999.0,75,-99.99,,,-99.99,,2013-06-13 11:00:00,
2013-06-13 12:42:00,58.0,50.0,29.78,North,-999,-999.0,-999.0,75,-99.99,,,-99.99,,2013-06-13 11:42:00,
2013-06-13 12:52:00,58.0,50.0,29.78,North,-999,-999.0,-999.0,75,-99.99,,,-99.99,,2013-06-13 11:52:00,
2013-06-13 16:00:00,61.0,50.0,29.83,North,-999,-999.0,-999.0,66,-99.99,,,-99.99,,2013-06-13 15:00:00,
2013-06-13 16:52:00,61.0,50.0,29.83,North,-999,-999.0,-999.0,66,-99.99,,,-99.99,,2013-06-13 15:52:00,
2013-06-13 17:00:00,54.0,51.0,29.85,North,-999,-999.0,-999.0,88,-99.99,,,-99.99,,2013-06-13 16:00:00,
2013-06-13 17:43:00,54.0,51.0,29.85,North,-999,-999.0,-999.0,88,-99.99,,,-99.99,,2013-06-13 16:43:00,
2013-06-13 17:53:00,54.0,51.0,29.85,North,-999,-999.0,-999.0,88,-99.99,,,-99.99,,2013-06-13 16:53:00,
2013-06-13 18:00:00,54.0,52.0,29.85,North,-999,-999.0,-999.0,92,-99.99,,,-99.99,,2013-06-13 17:00:00,
2013-06-13 18:43:00,54.0,52.0,29.85,North,-999,-999.0,-999.0,92,-99.99,,,-99.99,,2013-06-13 17:43:00,
2013-06-13 18:53:00,54.0,52.0,29.85,North,-999,-999.0,-999.0,92,-99.99,,,-99.99,,2013-06-13 17:53:00,
2013-06-13 19:00:00,55.0,53.0,29.89,North,-999,-999.0,-999.0,93,-99.99,,,-99.99,,2013-06-13 18:00:00,
2013-06-13 19:43:00,55.0,53.0,29.89,North,-999,-999.0,-999.0,93,-99.99,,,-99.99,,2013-06-13 18:43:00,
2013-06-13 19:52:00,55.0,53.0,29.89,North,-999,-999.0,-999.0,93,-99.99,,,-99.99,,2013-06-13 18:52:00,
2013-06-13 20:00:00,56.0,52.0,29.91,North,-999,-999.0,-999.0,88,-99.99,,,-99.99,,2013-06-13 19:00:00,
2013-06-13 20:43:00,56.0,52.0,29.91,North,-999,-999.0,-999.0,88,-99.99,,,-99.99,,2013-06-13 19:43:00,
2013-06-13 20:53:00,56.0,52.0,29.91,North,-999,-999.0,-999.0,88,-99.99,,,-99.99,,2013-06-13 19:53:00,
2013-06-13 21:00:00,54.0,53.0,29.89,North,-999,-999.0,-999.0,94,-99.99,,,-99.99,,2013-06-13 20:00:00,
2013-06-13 21:43:00,54.0,53.0,29.89,North,-999,-999.0,-999.0,94,-99.99,,,-99.99,,2013-06-13 20:43:00,
2013-06-13 21:53:00,54.0,53.0,29.89,North,-999,-999.0,-999.0,94,-99.99,,,-99.99,,2013-06-13 20:53:00,
2013-06-13 22:00:00,55.0,49.0,29.90,North,-999,-999.0,-999.0,80,-99.99,,,-99.99,,2013-06-13 21:00:00,
2013-06-13 22:43:00,55.0,49.0,29.90,North,-999,-999.0,-999.0,80,-99.99,,,-99.99,,2013-06-13 21:43:00,
2013-06-13 22:52:00,55.0,49.0,29.90,North,-999,-999.0,-999.0,80,-99.99,,,-99.99,,2013-06-13 21:52:00,
2013-06-13 23:00:00,56.0,47.0,29.91,North,-999,-999.0,-999.0,70,-99.99,,,-99.99,,2013-06-13 22:00:00,
2013-06-13 23:42:00,56.0,47.0,29.91,North,-999,-999.0,-999.0,70,-99.99,,,-99.99,,2013-06-13 22:42:00,
2013-06-13 23:52:00,56.0,47.0,29.91,North,-999,-999.0,-999.0,70,-99.99,,,-99.99,,2013-06-13 22:52:00,